This is the latest recevied weather packets stored in our database for station/object DB0MOD. If no packets are shown the sender has not sent any weather packets the latest 10 day(s).
| Time | Temp. | Humidity | Pressure | Rain* | Wind** | Luminosity | Snow |
|---|---|---|---|---|---|---|---|
| 1778159037 | 14.44° C | 34% | 1013 hPa | 0 mm | - | - | - |
| 1778158737 | 15° C | 34% | 1012.9 hPa | 0 mm | - | - | - |
| 1778158437 | 15° C | 38% | 1013 hPa | 0 mm | - | - | - |
| 1778158137 | 14.44° C | 31% | 1013.1 hPa | 0 mm | - | - | - |
| 1778157837 | 14.44° C | 26% | 1012.9 hPa | 0 mm | - | - | - |
| 1778157537 | 14.44° C | 27% | 1012.9 hPa | 0 mm | - | - | - |
| 1778157237 | 14.44° C | 20% | 1013.1 hPa | 0 mm | - | - | - |
| 1778156937 | 13.89° C | 17% | 1012.8 hPa | 0 mm | - | - | - |
| 1778156337 | 13.33° C | 20% | 1012.8 hPa | 0 mm | - | - | - |
| 1778156037 | 13.33° C | 12% | 1012.9 hPa | 0 mm | - | - | - |
| 1778155737 | 13.33° C | 14% | 1012.9 hPa | 0 mm | - | - | - |
| 1778155437 | 13.33° C | 19% | 1012.9 hPa | 0 mm | - | - | - |
| 1778155137 | 13.33° C | 15% | 1013 hPa | 0 mm | - | - | - |
| 1778154837 | 13.33° C | 17% | 1012.8 hPa | 0 mm | - | - | - |
| 1778154537 | 13.33° C | 10% | 1013 hPa | 0 mm | - | - | - |
| 1778154237 | 12.78° C | 11% | 1013.1 hPa | 0 mm | - | - | - |
| 1778153937 | 13.33° C | 10% | 1013 hPa | 0 mm | - | - | - |
| 1778153637 | 12.78° C | 10% | 1013 hPa | 0 mm | - | - | - |
| 1778153337 | 12.78° C | 10% | 1013.1 hPa | 0 mm | - | - | - |
| 1778153037 | 12.78° C | 10% | 1013.1 hPa | 0 mm | - | - | - |
| 1778152737 | 12.22° C | 10% | 1013 hPa | 0 mm | - | - | - |
| 1778152437 | 12.22° C | 10% | 1013.1 hPa | 0 mm | - | - | - |
| 1778152137 | 12.22° C | 10% | 1013.1 hPa | 0 mm | - | - | - |
| 1778151837 | 12.22° C | 10% | 1013 hPa | 0 mm | - | - | - |
| 1778151538 | 12.22° C | 10% | 1013.1 hPa | 0 mm | - | - | - |
* Rain latest hour (hover to see other rain measurements)
** Current wind speed in m/s (hover to see current wind gust speed)